Location: Brisbane
(27.5000°S, 153.0170°E)
Time: 00:44:51
(UTC+10:00)

ISS - Visible Passes

Search period start: 28 March 2017 00:00
Search period end: 07 April 2017 00:00
Orbit: 399 x 409 km, 51.6° (Epoch: 27 March)

Date Brightness Start Highest point End Pass type
(mag) Time Alt. Az. Time Alt. Az. Time Alt. Az.
30 Mar -0.7 04:46:05 10° NNE 04:47:44 13° NE 04:49:24 10° E visible
31 Mar -3.8 05:28:11 10° NW 05:31:30 79° SW 05:34:51 10° SE visible
01 Apr -2.6 04:37:21 21° N 04:39:08 40° NE 04:42:17 10° ESE visible
02 Apr -0.7 03:48:01 15° E 03:48:01 15° E 03:49:07 10° E visible
02 Apr -2.5 05:20:44 13° W 05:23:07 25° SW 05:25:59 10° SSE visible
03 Apr -3.3 04:31:11 48° S 04:31:11 48° S 04:33:54 10° SE visible
04 Apr -0.3 03:41:28 10° SE 03:41:28 10° SE 03:41:28 10° SE visible
04 Apr -1.5 05:14:08 10° SW 05:14:53 11° SW 05:15:52 10° SSW visible
05 Apr -1.2 04:24:15 13° S 04:24:15 13° S 04:24:48 10° S visible
